Location: �clusier
(49.9361°N, 2.7869°E)
Time: 05:53:23
(UTC+00:00)

Cosmos 2016 Rocket - Pass Details

Date: 30 October 2021
Orbit: 947 x 1000 km, 83.0° (Epoch: 05 December)

Event Time Altitude Azimuth Distance (km) Brightness Sun altitude
Rises 04:36:17 0° 357° (N) 3,630 7.0 -19.6°
Reaches altitude 10° 04:39:18 10° 11° (N) 2,682 6.4 -19.1°
Maximum altitude 04:44:12 25° 64° (ENE) 1,843 6.2 -18.3°
Drops below altitude 10° 04:49:06 10° 118° (ESE) 2,683 7.3 -17.5°
Sets 04:52:06 0° 131° (SE) 3,631 7.8 -17.0°
